Location: Newark
(34.1333°N, 7.9667°W)
Time: 14:28:36
(UTC+00:00)

S-56A Canister/Altair - Pass Details

Date: 09 December 2021
Orbit: 634 x 2499 km, 38.9° (Epoch: 25 January)

Event Time Altitude Azimuth Distance (km) Brightness Sun altitude
Rises 21:43:35 0° 235° (SW) 6,111 12.5 -53.2°
Reaches altitude 10° 21:47:48 10° 233° (SW) 4,996 11.9 -54.0°
Enters shadow 21:54:30 33° 227° (SW) 3,238 10.7 -55.4°
